{"data":{"norad_id":66229,"epoch":"2026-09-20T16:25:38.723808Z","epoch_age_seconds":80727,"freshness":"FRESH","line1":"1 66229U 25244Z   26263.68447597  .00029752  00000+0  88757-3 0  9993","line2":"2 66229  53.1505  40.6605 0001683 106.7734 253.3453 15.34421746 51562","mean_motion":15.34421746,"eccentricity":0.0001683,"inclination_deg":53.1505,"raan_deg":40.6605,"arg_perigee_deg":106.7734,"mean_anomaly_deg":253.3453,"bstar":0.00088757,"rev_number":5156,"period_min":93.846428060203,"perigee_km":461.48730474097,"apogee_km":463.78990981038,"semimajor_km":6840.7756072757,"source":"CELESTRAK","updated_at":"2026-09-21T09:00:35.844461Z"}}